INSAT 3A

Last updated on Mon Mar 27 2017 00:17:08 GMT+0000 (Coordinated Universal Time)

1 27714U 03013A 17084.60624962 .00000101 00000-0 00000-0 0 9995 2 27714 0.9781 88.3794 0015640 235.5492 302.9027 0.99801616 51080

Satellite not in orbit

INSAT 3A